Stations météo

réclame
Mon MeteoGroup
Timrå/Midlanda, Suède (2366): Température de l'air & dewpoint: 18.02.2018 13:00:00 - 24.02.2018 13:00:00 (CET)Timrå/Midlanda, Suède (2366): Vitesse du vent: 18.02.2018 13:00:00 - 24.02.2018 13:00:00 (CET)Timrå/Midlanda, Suède (2366): Direction du vent: 18.02.2018 13:00:00 - 24.02.2018 13:00:00 (CET)Timrå/Midlanda, Suède (2366): reduced air pressure: 18.02.2018 13:00:00 - 24.02.2018 13:00:00 (CET)Timrå/Midlanda, Suède (2366): visibility: 18.02.2018 13:00:00 - 24.02.2018 13:00:00 (CET)
Date & Time tt [°C] td [°C] ff [km/h] ff [knt] dd ppp [hPa] vv [km]
24.02.2018 13:00:00 -10,0 -12,5 2 1 - 1042,2 4,0
24.02.2018 12:00:00 -10,9 -13,3 2 1 W 1042,5 3,0
24.02.2018 11:00:00 -12,7 -14,8 4 2 WSW 1042,6 2,3
24.02.2018 10:00:00 -13,9 -16,4 0 0 N 1042,6 10
24.02.2018 09:00:00 -15,4 -17,8 0 0 N 1042,2 10
24.02.2018 08:00:00 -17,1 -19,5 0 0 N 1042,1 10
24.02.2018 07:00:00 -16,9 -19,3 0 0 N 1042,0 10
24.02.2018 06:00:00 -17,5 -19,8 2 1 - 1041,6 10
24.02.2018 05:00:00 -16,0 -18,1 4 2 NW 1041,2 10
24.02.2018 04:00:00 -17,8 -19,9 0 0 N 1040,7 10
24.02.2018 03:00:00 -15,6 -17,7 9 5 NW 1040,7 10
24.02.2018 02:00:00 -19,2 -21,3 4 2 NNW 1040,9 10
24.02.2018 01:00:00 -18,4 -20,3 5 3 NNW 1040,5 10
24.02.2018 00:00:00 -16,2 -18,0 5 3 NNW 1040,0 10
23.02.2018 23:00:00 -15,5 -17,3 5 3 NNW 1039,6 10
23.02.2018 22:00:00 -16,1 -17,9 5 3 NW 1039,1 10
23.02.2018 21:00:00 -16,0 -17,7 4 2 N 1038,4 10
23.02.2018 20:00:00 -14,3 -15,6 0 0 N 1037,9 10
23.02.2018 19:00:00 -13,8 -15,8 0 0 N 1037,4 10
23.02.2018 18:00:00 -9,6 -12,9 5 3 NNE 1036,9 8
23.02.2018 17:00:00 -8,6 -12,1 5 3 NE 1036,3 10
23.02.2018 16:00:00 -8,4 -12,1 9 5 NNE 1035,5 10
23.02.2018 15:00:00 -8,3 -11,9 9 5 NNE 1035,0 10
23.02.2018 14:00:00 -8,2 -12,0 11 6 N 1034,6 10
23.02.2018 13:00:00 -8,2 -11,5 11 6 NE 1034,2 10
23.02.2018 12:00:00 -8,4 -11,9 11 6 NNE 1033,9 10
23.02.2018 11:00:00 -8,8 -12,0 13 7 NNE 1033,4 9
23.02.2018 10:00:00 -9,1 -13,4 8 4 N 1032,7 10
23.02.2018 09:00:00 -9,7 -13,1 9 5 NW 1032,1 10
23.02.2018 08:00:00 -10,0 -12,9 9 5 NW 1031,5 10
23.02.2018 07:00:00 -10,0 -12,8 5 3 WNW 1030,7 10
23.02.2018 06:00:00 -10,0 -12,4 5 3 - 1030,1 10
23.02.2018 05:00:00 -9,7 -12,3 5 3 NW 1029,6 10
23.02.2018 04:00:00 -9,5 -11,8 0 0 N 1029,5 10
23.02.2018 03:00:00 -9,0 -11,3 2 1 - 1028,7 10
23.02.2018 02:00:00 -9,2 -10,9 0 0 N 1028,5 10
23.02.2018 01:00:00 -8,5 -10,2 8 4 NNW 1028,2 2,5
23.02.2018 00:00:00 -9,6 -11,2 0 0 N 1028,0 10
22.02.2018 23:00:00 -9,0 -10,4 5 3 NW 1028,1 10
22.02.2018 22:00:00 -9,6 -10,9 4 2 N 1027,9 10
22.02.2018 21:00:00 -9,8 -11,1 2 1 N 1027,8 10
22.02.2018 20:00:00 -9,6 -10,9 4 2 NW 1027,8 10
22.02.2018 19:00:00 -9,1 -10,5 0 0 N 1027,9 10
22.02.2018 18:00:00 -8,0 -9,9 0 0 N 1028,0 10
22.02.2018 17:00:00 -6,8 -9,3 0 0 N 1027,9 10
22.02.2018 16:00:00 -6,2 -9,4 0 0 N 1028,0 10
22.02.2018 15:00:00 -5,5 -9,3 0 0 N 1028,3 10
22.02.2018 14:00:00 -5,4 -9,3 5 3 W 1028,5 10
22.02.2018 13:00:00 -6,1 -10,0 4 2 NW 1029,0 10
22.02.2018 12:00:00 -6,0 -10,2 5 3 WNW 1029,1 10
22.02.2018 11:00:00 -7,8 -10,8 4 2 - 1029,4 10
22.02.2018 10:00:00 -9,0 -11,7 5 3 WNW 1029,6 10
22.02.2018 09:00:00 -9,8 -12,1 9 5 NW 1029,8 5
22.02.2018 08:00:00 -10,3 -12,5 11 6 NW 1029,8 8
22.02.2018 07:00:00 -10,8 -12,8 8 4 NW 1029,6 10
22.02.2018 06:00:00 -11,2 -13,3 5 3 NW 1029,2 10
22.02.2018 05:00:00 -10,1 -12,1 11 6 WNW 1029,6 5
22.02.2018 04:00:00 -10,1 -12,2 8 4 NW 1029,7 10
22.02.2018 03:00:00 -10,5 -12,5 8 4 WNW 1029,6 10
22.02.2018 02:00:00 -10,7 -12,8 9 5 NW 1029,7 8
22.02.2018 01:00:00 -10,8 -12,9 8 4 WNW 1030,0 10
22.02.2018 00:00:00 -10,8 -13,0 9 5 NW 1030,0 10
21.02.2018 23:00:00 -11,0 -13,1 8 4 NW 1029,7 10
21.02.2018 22:00:00 -10,9 -13,1 9 5 NW 1029,6 10
21.02.2018 21:00:00 -11,0 -12,9 9 5 NW 1029,6 10
21.02.2018 20:00:00 -11,2 -13,2 9 5 NW 1029,4 10
21.02.2018 19:00:00 -11,0 -12,9 11 6 NW 1029,2 10
21.02.2018 18:00:00 -11,5 -13,4 9 5 NW 1028,9 10
21.02.2018 17:00:00 -11,3 -13,2 5 3 NNE 1028,7 10
21.02.2018 16:00:00 -9,4 -11,9 5 3 N 1028,7 10
21.02.2018 15:00:00 -8,8 -11,9 11 6 ENE 1028,9 10
21.02.2018 14:00:00 -6,5 -11,5 0 0 N 1029,1 10
21.02.2018 13:00:00 -7,1 -12,5 4 2 - 1029,2 10
21.02.2018 12:00:00 -9,0 -15,3 0 0 N 1029,3 10
21.02.2018 11:00:00 -11,6 -17,5 2 1 - 1029,3 10
21.02.2018 10:00:00 -13,6 -17,1 9 5 WNW 1029,4 10
21.02.2018 09:00:00 -15,3 -18,3 11 6 WNW 1029,3 10
21.02.2018 08:00:00 -16,3 -18,8 13 7 WNW 1029,1 10
21.02.2018 07:00:00 -15,8 -18,1 13 7 NW 1028,8 10
21.02.2018 06:00:00 -14,6 -16,9 15 8 NW 1028,8 4,6
21.02.2018 05:00:00 -13,4 -15,8 11 6 NW 1028,9 10
21.02.2018 04:00:00 -13,1 -15,1 9 5 NW 1029,0 10
21.02.2018 03:00:00 -11,8 -13,8 8 4 WNW 1029,0 10
21.02.2018 02:00:00 -11,7 -13,4 8 4 NNW 1029,1 10
21.02.2018 01:00:00 -10,4 -12,4 5 3 - 1029,2 10
21.02.2018 00:00:00 -9,7 -11,7 5 3 - 1029,5 10
20.02.2018 23:00:00 -9,4 -11,4 4 2 - 1029,4 10
20.02.2018 22:00:00 -9,0 -11,0 5 3 WNW 1029,4 10
20.02.2018 21:00:00 -8,5 -10,7 5 3 NW 1029,3 10
20.02.2018 20:00:00 -8,3 -10,8 4 2 - 1029,5 10
20.02.2018 19:00:00 -8,2 -10,7 5 3 - 1029,6 10
20.02.2018 18:00:00 -8,0 -10,7 5 3 - 1029,6 10
20.02.2018 17:00:00 -7,8 -10,5 5 3 N 1029,3 10
20.02.2018 16:00:00 -7,6 -10,3 5 3 NNE 1029,6 10
20.02.2018 15:00:00 -7,3 -10,0 5 3 NE 1029,9 10
20.02.2018 14:00:00 -7,2 -10,3 5 3 ENE 1030,2 10
20.02.2018 13:00:00 -7,4 -10,4 0 0 N 1030,4 10
20.02.2018 12:00:00 -8,1 -10,9 5 3 WNW 1030,7 7
20.02.2018 11:00:00 -9,5 -12,7 5 3 WNW 1031,0 9
20.02.2018 10:00:00 -10,9 -13,7 9 5 WNW 1030,8 9
20.02.2018 09:00:00 -12,1 -14,8 15 8 NW 1031,1 7
20.02.2018 08:00:00 -12,8 -15,2 11 6 NW 1031,2 7
20.02.2018 07:00:00 -12,7 -15,3 13 7 NW 1031,1 10
20.02.2018 06:00:00 -13,0 -15,6 13 7 NW 1031,2 10
20.02.2018 05:00:00 -12,0 -14,4 18 10 NW 1031,1 10
20.02.2018 04:00:00 -11,2 -13,5 15 8 NW 1031,3 10
20.02.2018 03:00:00 -10,6 -12,8 15 8 NW 1031,7 8
20.02.2018 02:00:00 -10,4 -12,4 5 3 NW 1031,8 10
20.02.2018 01:00:00 -9,4 -11,5 15 8 NW 1031,7 10
20.02.2018 00:00:00 -9,4 -11,0 11 6 NW 1032,0 10
19.02.2018 23:00:00 -8,0 -10,1 11 6 NW 1032,1 10
19.02.2018 22:00:00 -7,8 -10,0 8 4 NW 1032,0 8
19.02.2018 21:00:00 -9,6 -11,2 8 4 NW 1032,0 10
19.02.2018 20:00:00 -7,5 -9,7 2 1 E 1032,0 10
19.02.2018 19:00:00 -7,3 -9,5 0 0 N 1031,8 10
19.02.2018 18:00:00 -7,1 -9,3 4 2 - 1031,9 10
19.02.2018 17:00:00 -6,8 -9,0 5 3 E 1031,6 10
19.02.2018 16:00:00 -6,4 -9,6 5 3 N 1031,2 10
19.02.2018 15:00:00 -5,7 -9,3 9 5 N 1030,8 10
19.02.2018 14:00:00 -6,0 -9,3 11 6 N 1030,8 45
19.02.2018 13:00:00 -5,4 -8,6 11 6 NNW 1030,6 10
19.02.2018 12:00:00 -5,4 -8,6 11 6 N 1030,6 10
19.02.2018 11:00:00 -5,3 -9,1 8 4 NE 1030,2 10
19.02.2018 10:00:00 -5,2 -8,6 9 5 N 1029,8 10
19.02.2018 09:00:00 -5,2 -7,9 9 5 NE 1029,1 10
19.02.2018 08:00:00 -5,1 -7,8 8 4 NNE 1028,6 10
19.02.2018 07:00:00 -4,8 -7,7 9 5 NNE 1028,2 10
19.02.2018 06:00:00 -4,5 -8,0 9 5 N 1027,4 10
19.02.2018 05:00:00 -4,7 -7,3 9 5 NNE 1027,1 10
19.02.2018 04:00:00 -4,6 -7,2 8 4 NNE 1026,7 10
19.02.2018 03:00:00 -4,4 -6,9 11 6 NE 1026,3 10
19.02.2018 02:00:00 -4,4 -6,8 2 1 - 1026,3 10
19.02.2018 01:00:00 -3,9 -6,4 8 4 ENE 1026,0 10
19.02.2018 00:00:00 -3,8 -6,0 5 3 ENE 1025,9 9
18.02.2018 23:00:00 -4,3 -6,0 4 2 WNW 1025,6 10
18.02.2018 22:00:00 -4,6 -5,9 4 2 - 1025,5 10
18.02.2018 21:00:00 -4,5 -6,0 4 2 NW 1025,2 10
18.02.2018 20:00:00 -4,4 -6,1 0 0 N 1025,1 10
18.02.2018 19:00:00 -4,0 -6,1 4 2 ENE 1024,9 10
18.02.2018 18:00:00 -4,4 -6,0 0 0 N 1024,9 10
18.02.2018 17:00:00 -4,1 -6,2 4 2 SSE 1024,8 10
18.02.2018 16:00:00 -3,5 -6,1 4 2 E 1024,8 10
18.02.2018 15:00:00 -3,2 -5,8 9 5 ESE 1024,7 10
18.02.2018 14:00:00 -3,0 -5,8 9 5 SE 1024,8 10
18.02.2018 13:00:00 -2,9 -5,7 11 6 SE 1024,8 10

tt = Température de l'air
td = dewpoint
ff = Vitesse du vent
dd = Direction du vent
ppp = reduced air pressure
vv = visibility

stations d'obs. à proximité